Regional Weather Roundup
Issued by NWS

Home | Current Version | Previous Version | Text Only | Print | Product List | Glossary Off
Versions: 1 2 3 4 5 6 7 8 9 10 11 12 13 14 15 16 17 18 19 20 21 22 23 24 25 26 27 28 29 30 31 32 33 34 35 36 37 38 39 40 41 42 43 44 45 46 47 48 49 50

000
ASUS43 KOAX 102110
RWRNE

WEATHER ROUNDUP FOR NEBRASKA
NATIONAL WEATHER SERVICE OMAHA NE
300 PM CST WED FEB 10 2016

NOTES: SATELLITE DATA IS BEING USED TO AUGMENT CLOUD COVER ABOVE
       12000 FEET.
       "FAIR" INDICATES FEW OR NO CLOUDS BELOW 12,000 FEET WITH NO
       SIGNIFICANT WEATHER AND/OR OBSTRUCTIONS TO VISIBILITY.

  * THESE STATIONS DO NOT REPORT WEATHER SUCH AS RAIN...SNOW OR FOG.

NEZ001>004-019>022-054>056-102200-
NEBRASKA PANHANDLE

CITY           SKY/WX    TMP DP  RH WIND       PRES   REMARKS
SCOTTSBLUFF    SUNNY     62  25  24 W16       30.00F
ALLIANCE       CLOUDY    50  31  48 NW15      29.97F
CHADRON        SUNNY     63  25  23 NW21G33   29.94F
KIMBALL        CLOUDY    57  27  31 NW13      30.04S
SIDNEY         CLOUDY    51  30  44 NW13      30.01F
$$

NEZ057>060-069>072-079>082-102200-
SOUTHWEST NEBRASKA

CITY           SKY/WX    TMP DP  RH WIND       PRES   REMARKS
NORTH PLATTE   SUNNY     51  31  46 W10       29.90S
IMPERIAL       SUNNY     51  29  42 NW14G24   29.97F
LEXINGTON      SUNNY     49  32  51 W15       29.90R
MCCOOK         SUNNY     51  30  44 W14G23    29.94S
OGALLALA       SUNNY     54  29  39 NW13      29.95R
$$

NEZ005>010-023>029-035>040-094-102200-
NORTH CENTRAL NEBRASKA

CITY           SKY/WX    TMP DP  RH WIND       PRES   REMARKS
VALENTINE      SUNNY     55  28  35 NW17      29.89R
AINSWORTH      SUNNY     57  26  30 NW23G35   29.87R
BROKEN BOW     SUNNY     59  31  34 NW12      29.86R
O`NEILL        SUNNY     42  31  65 NE13      29.85R
ORD            SUNNY     56  30  37 NW9       29.83S
THEDFORD       SUNNY     63  27  24 NW20G29   29.89R
$$

NEZ041-046>049-061>064-073>077-083>087-102200-
SOUTH CENTRAL NEBRASKA

CITY           SKY/WX    TMP DP  RH WIND       PRES   REMARKS
GRAND ISLAND   SUNNY     47  32  56 W6        29.86R
AURORA         SUNNY     45  33  62 W6        29.86R
HASTINGS       SUNNY     46  32  58 W9        29.86S
HEBRON         SUNNY     47  33  58 W8        29.87F
HOLDREGE       SUNNY     50  31  48 W8        29.88F
KEARNEY *      SUNNY     48  30  49 W10       29.88R
YORK           SUNNY     45  36  70 W7        29.86R
$$

NEZ011>018-030>034-042>045-102200-
NORTHEAST NEBRASKA

CITY           SKY/WX    TMP DP  RH WIND       PRES   REMARKS
NORFOLK        SUNNY     36  26  67 E10       29.86F WCI  28
ALBION         SUNNY     49  31  50 CALM      29.84R
BLAIR          SUNNY     37  24  58 CALM      29.90R
COLUMBUS *     SUNNY     37  25  60 E9        29.88S WCI  31
FREMONT        SUNNY     34  22  61 E5        29.91S WCI  30
TEKAMAH        SUNNY     33  23  66 E8        29.94R WCI  26
WAYNE          SUNNY     32  24  73 SE8       29.91S WCI  25
$$

NEZ050>053-065>068-078-088>093-102200-
SOUTHEAST NEBRASKA

CITY           SKY/WX    TMP DP  RH WIND       PRES   REMARKS
LINCOLN        SUNNY     41  28  60 NE6       29.89F
OMAHA EPPLEY   MOSUNNY   37  23  56 SE8       29.92R WCI  31
BEATRICE       SUNNY     49  32  53 W10       29.87R
FALLS CITY     SUNNY     51  27  39 VRB3      29.87F
NEBRASKA CITY  SUNNY     44  26  48 NE3       29.89S
PLATTSMOUTH    SUNNY     40  25  56 E3        29.90S
$$

NEZ044-045-051>053-067-102200-
OMAHA AREA

CITY           SKY/WX    TMP DP  RH WIND       PRES   REMARKS
OMAHA EPPLEY   MOSUNNY   37  23  56 SE8       29.92R WCI  31
BLAIR          SUNNY     37  24  58 CALM      29.90R
FREMONT        SUNNY     34  22  61 E5        29.91S WCI  30
MILLARD        SUNNY     38  24  57 CALM      29.91S
OFFUTT AFB     SUNNY     38  23  54 SE2       29.91R
PLATTSMOUTH    SUNNY     40  25  56 E3        29.90S
WAHOO          FAIR      34  25  69 NE5       29.90S WCI  30
$$



USA.gov is the U.S. government's official web portal to all federal, state and local government web resources and services.